HULIANWANG DIGUI-85

基本信息
目录编号:
65820
目录名称:
HULIANWANG DIGUI-85
国际标识:
2025-220D
轨道中心:
EARTH
卫星名称:
HULIANWANG DIGUI-85
卫星全名:
HULIANWANG DIGUI-85
卫星状态:
在轨 (已飞行23 天)
发射日期:
2025-09-27 UTC
国别 :
中国 (CN)
星等 :
--
轨道信息
数据来源 国际轨道数据
星历时间: 2025-10-17T05:22:10+0800
3天前
查看轨道信息
半长轴: 7403.89km
偏心率: 0.0001592
轨道倾角: 86.492°
近地点辐角 110.699°
升交点赤经 126.393°
平近点角 249.433°
近地点: 1024.576km
远地点: 1026.934km
周期: 105.669分钟
每日圈数: 13.627396
详细信息
使用方式:
暂无
2D轨道图
3D轨道图
轨道高度分析图
轨道倾角分析图
轨道综合分析图
查看轨道综合分析图